Flag for U.S.A. Weather past 2 weeks in Dayton, Ohio, U.S.A.

Now
58 °F

Light rain. Fog.


Feels Like: 56 °F
Forecast: 52 / 67 °F
Wind: 7 mph from North

Location: Dayton / Wright-Patterson Air Force Base

Current Time: Sep 16, 2014 at 1:59:27 AM

Latest Report: Sep 16, 2014 at 12:58 AM


Visibility: 4 mi

Pressure: 30.12 "Hg

Humidity: 96%

Dew point: 57 °F

Location of DaytonLocation

Historic Weather in Dayton — Graph

°F

Dayton temperature yesterday

Maximum temperature yesterday: 70 °F (at 2:58 PM)
Minimum temperature yesterday: 47 °F (at 7:58 AM)
Average temperature yesterday: 58 °F

Past Weeks' High & Low Weather Summary

 TemperatureHumidityPressure
High89 °F (Sep 5, 2:58 PM)100% (Sep 1, 3:58 AM)30.35 "Hg (Sep 1, 3:58 AM)
Low47 °F (Sep 14, 6:58 AM)39% (Sep 9, 4:58 PM)29.74 "Hg (Sep 11, 12:58 AM)
Average68 °F79%30.08 "Hg
* Reported Sep 1 12:58 AM — Sep 16 12:58 AM, Dayton, Weather by CustomWeather, © 2014

Note: Actual official high and low records may vary slightly from our data, if they occured in-between our weather recording intervals... More about our weather records

Advertising

Dayton weather history for previous 24 hours

 ConditionsComfort  
Time TempWeatherWind HumidityBarometerVisibility
12:58 AM
Sep 16
58 °FLight rain. Fog.7 mph96%30.12 "Hg4 mi
11:58 PM
Sep 15
58 °FMostly cloudy.3 mph96%30.11 "Hg10 mi
10:58 PM59 °FDrizzle. Mostly cloudy.10 mph89%30.11 "Hg8 mi
9:58 PM61 °FOvercast.3 mph84%30.11 "Hg10 mi
8:58 PM61 °FPassing clouds.5 mph83%30.10 "Hg10 mi
7:58 PM60 °FSunny.5 mph84%30.09 "Hg10 mi
6:58 PM63 °FSunny.10 mph76%30.09 "Hg10 mi
5:58 PM62 °FScattered clouds.7 mph79%30.04 "Hg10 mi
4:58 PM68 °FPassing clouds.10 mph54%30.11 "Hg10 mi
3:58 PM69 °FPartly sunny.10 mph55%30.14 "Hg10 mi
2:58 PM70 °FPartly sunny.6 mph52%30.15 "Hg10 mi
1:58 PM69 °FPassing clouds.9 mph51%30.14 "Hg10 mi
12:58 PM68 °FPassing clouds.8 mph53%30.18 "Hg10 mi
11:58 AM66 °FSunny.7 mph56%30.19 "Hg10 mi
10:58 AM64 °FSunny.3 mph64%30.20 "Hg10 mi
9:58 AM58 °FSunny.No wind73%30.24 "Hg10 mi
8:58 AM53 °FPassing clouds.No wind81%30.22 "Hg10 mi
7:58 AM47 °FClear.No wind91%30.23 "Hg10 mi
6:58 AM48 °FLight fog.2 mph94%30.23 "Hg7 mi
5:58 AM48 °FLight fog.No wind87%30.23 "Hg7 mi
4:58 AM49 °FLight fog.No wind93%30.23 "Hg7 mi
3:58 AM48 °FClear.No wind89%30.22 "Hg10 mi
2:58 AM49 °FClear.No wind92%30.22 "Hg10 mi
1:58 AM51 °FClear.3 mph89%30.23 "Hg10 mi
Weather by CustomWeather, © 2014

See weather overviewHow to use our weather pages